Wind_Speed
11 11 11 11 11 11 10 9 8 8 10 12 11 12 14 18 16 10 15 11 12 16 16 15 13 15 17 21 25 26 15 18 24 22 20 23 19 18 21 19 25 19 6 14 20
12 11 10 10 10 9 9 9 9 9 11 12 12 14 17 19 17 9 10 11 16 18 15 9 14 17 23 19 23 20 18 29 24 19 20 22 21 25 20 23 23 15 4 2 12
15 13 13 12 12 12 11 11 10 11 12 13 14 15 17 14 10 6 5 10 12 10 9 13 14 17 23 26 28 27 27 26 30 32 28 23 26 21 17 19 27 23 16 10 19
15 14 13 13 13 13 12 12 12 13 15 16 16 13 11 7 3 5 11 9 8 9 7 10 14 20 20 22 29 26 35 35 35 38 34 26 30 28 25 28 33 25 22 22 17
17 16 15 14 13 13 14 14 14 13 14 15 15 14 10 7 2 7 13 13 13 8 10 12 15 18 21 21 26 30 29 38 38 36 35 36 32 32 24 31 33 30 25 25 27
18 18 16 15 15 15 14 14 14 14 16 17 11 10 7 14 4 5 9 9 10 10 11 11 13 17 24 23 22 29 34 34 38 35 31 29 30 31 33 29 32 34 30 19 19
20 19 19 17 16 15 14 14 14 16 16 11 9 8 10 12 5 7 9 11 11 10 11 11 12 12 15 17 29 27 27 25 28 32 29 32 26 32 36 32 30 33 36 32 26
21 21 21 20 17 16 14 12 13 14 11 7 6 5 8 3 4 6 11 12 9 12 13 12 12 16 18 19 28 22 20 21 29 27 31 24 30 28 40 33 33 35 34 36 33
21 21 20 19 16 14 12 11 11 11 5 5 3 4 12 5 3 12 11 11 13 13 12 12 11 15 17 14 15 17 21 24 25 25 27 26 31 27 37 34 29 33 34 37 35
26 24 21 18 14 11 10 11 13 9 3 6 9 9 10 5 10 13 10 10 14 12 13 12 16 13 13 13 17 18 21 23 27 26 25 26 29 28 34 31 33 35 36 37 36
27 26 22 18 12 8 8 8 6 2 7 16 15 16 13 7 11 8 8 11 14 10 14 14 11 14 17 17 20 19 22 27 28 27 24 24 25 28 27 32 29 29 29 39 42
27 27 22 16 9 4 6 9 8 10 13 16 16 14 12 10 10 12 8 13 14 13 16 13 15 16 16 18 20 20 20 25 25 26 23 27 28 27 22 24 29 30 34 33 37
26 26 19 13 5 3 5 5 10 12 9 10 5 6 7 6 13 14 7 13 13 15 15 16 18 19 18 20 18 18 21 21 24 22 24 25 26 28 27 22 24 30 31 37 36
25 25 17 6 3 7 2 10 11 10 5 7 8 3 5 6 8 3 13 8 13 17 18 15 19 20 20 22 21 21 21 21 21 19 17 20 18 22 21 23 21 28 31 25 24
24 22 10 2 6 9 10 11 11 4 4 5 7 4 5 9 15 7 4 10 13 16 16 18 19 19 22 22 21 23 21 20 22 20 22 23 15 19 22 22 22 22 29 28 29
25 21 5 3 8 5 11 12 6 5 2 4 2 6 10 13 19 7 13 13 21 18 18 19 23 19 19 21 20 28 20 22 18 17 17 24 19 21 19 23 24 18 28 35 39
26 18 7 5 5 10 10 9 5 6 5 2 6 11 13 19 7 9 8 13 12 12 14 18 15 10 6 11 19 27 16 12 15 14 17 22 21 19 21 24 24 22 23 30 26
25 10 5 7 5 9 9 9 6 6 8 14 11 16 18 14 6 8 13 13 12 10 13 14 17 9 13 19 10 26 9 9 19 16 17 20 15 17 19 22 33 33 35 25 21
20 7 5 3 3 7 10 5 4 10 12 11 14 15 12 10 11 12 14 13 8 7 12 15 20 8 16 20 14 19 11 20 12 19 14 19 27 21 22 23 25 25 32 18 21
20 5 5 7 3 5 7 9 14 8 11 12 14 10 15 17 16 15 15 10 13 15 15 15 19 19 22 21 18 15 9 12 5 12 17 17 22 12 20 19 24 24 19 26 9
10 5 2 1 5 7 5 12 12 16 12 6 13 16 15 15 16 18 15 20 10 18 16 19 15 20 19 18 16 12 3 3 11 6 5 8 12 12 17 22 21 22 20 9 15
7 2 1 4 7 4 7 11 11 9 9 13 8 10 10 16 16 18 19 16 16 12 13 14 8 17 22 25 25 17 14 11 6 10 9 12 21 15 23 28 29 23 9 9 12
11 9 2 6 2 6 12 16 13 7 9 8 8 12 12 15 13 9 18 21 14 10 9 8 6 12 15 18 7 8 6 5 10 13 14 10 11 17 26 31 45 38 15 14 19
8 3 2 6 8 10 12 13 13 9 8 5 8 11 13 16 13 16 21 20 7 7 10 9 11 18 17 21 3 9 15 24 17 7 18 13 15 10 17 18 27 36 32 16 11
6 5 6 5 10 13 10 14 13 15 12 4 11 16 14 16 19 19 16 24 23 8 7 3 8 17 25 26 24 25 19 23 26 22 19 14 17 5 5 13 27 46 42 19 8
9 9 13 20 12 12 5 10 12 13 14 15 16 16 17 18 18 24 22 20 20 15 8 6 5 12 22 23 22 24 26 29 30 30 18 17 15 9 16 24 31 32 23 16 10
8 7 5 11 10 10 9 10 12 16 11 15 18 19 18 19 30 30 32 32 22 5 3 2 3 3 12 17 14 16 24 26 26 21 19 15 11 9 8 17 20 13 15 13 16
Wind_Direction
347 343 341 342 339 337 337 337 340 343 341 337 334 331 324 315 308 278 271 249 252 274 274 274 266 253 250 247 241 240 241 247 248 254 263 273 280 282 269 274 242 260 129 177 176
346 341 338 338 338 335 333 331 330 333 333 333 334 331 322 314 305 291 219 261 283 284 278 280 263 246 237 241 231 237 244 239 244 250 273 279 270 276 255 254 257 235 133 19 135
343 339 337 335 334 332 328 325 323 328 331 330 329 329 325 322 316 156 232 293 302 307 290 274 273 262 262 235 235 229 246 247 251 250 248 265 283 285 276 269 253 239 188 208 185
340 335 332 330 328 327 322 323 322 326 331 330 331 329 324 321 350 152 316 325 349 352 291 280 261 250 251 253 239 239 242 246 255 264 280 284 275 262 244 256 263 262 240 194 207
344 338 333 327 323 321 319 317 319 321 326 327 327 328 336 262 275 335 349 346 342 313 294 280 268 263 255 253 253 251 247 247 248 253 266 274 272 272 243 253 266 270 259 230 209
349 343 337 329 322 317 315 310 313 317 321 322 319 318 310 289 345 340 321 322 311 304 299 289 275 268 277 280 262 258 261 260 257 254 243 251 264 263 261 247 260 270 263 241 230
349 343 338 334 325 318 315 311 312 314 316 312 313 310 286 270 336 319 317 313 308 300 291 283 294 291 291 289 249 274 274 270 264 259 253 252 248 251 255 251 251 260 267 268 223
346 340 336 334 327 321 317 313 316 311 310 307 299 302 260 213 337 324 318 314 305 296 288 280 279 279 276 275 285 278 281 258 248 253 255 262 253 244 252 243 248 256 261 263 259
345 339 333 330 324 321 316 314 317 317 300 291 266 236 286 232 279 324 319 311 312 305 297 278 264 275 282 262 261 249 256 258 266 247 246 241 259 247 244 247 233 245 255 260 260
347 343 336 329 324 326 328 308 311 309 302 282 258 265 258 281 321 319 315 306 307 302 295 249 243 256 249 242 249 263 247 248 252 259 265 237 240 252 251 245 240 239 247 258 257
345 344 339 333 330 343 1 344 322 251 252 266 293 279 292 296 315 312 320 314 310 280 289 291 265 252 253 253 259 269 266 272 278 288 291 255 253 245 239 248 236 239 236 246 254
343 344 341 335 331 345 349 342 6 316 303 276 262 260 268 281 288 304 312 305 315 304 306 285 265 258 265 265 267 275 285 281 287 288 284 280 281 281 246 240 242 234 231 240 248
341 343 341 337 4 11 339 348 333 326 287 305 217 231 244 293 280 296 314 301 294 303 303 297 294 300 298 291 280 264 262 278 284 291 287 284 275 268 273 272 253 266 247 227 238
338 341 341 336 351 338 283 327 326 319 274 131 189 190 242 278 275 326 282 305 293 298 298 294 294 287 278 267 275 279 280 274 282 287 274 268 273 261 263 257 260 267 257 257 248
337 337 338 3 324 337 324 325 313 271 276 148 128 124 251 248 278 277 266 281 275 284 287 285 289 285 284 279 283 279 285 279 280 281 275 264 258 265 266 257 245 239 251 249 262
340 332 301 333 317 322 327 321 314 239 255 160 275 259 280 301 295 307 279 262 271 264 264 277 287 280 317 291 284 291 278 275 271 274 262 262 255 259 256 257 267 259 237 231 232
343 327 265 264 335 322 323 300 250 272 132 54 339 323 316 288 291 307 299 295 306 311 302 315 317 14 313 313 313 304 260 263 259 251 253 256 257 259 257 268 266 265 272 279 263
339 337 259 222 296 316 315 277 265 310 316 359 331 316 278 288 309 319 309 298 303 331 321 316 310 342 337 299 301 282 279 293 275 273 286 296 285 282 281 270 269 272 255 279 287
338 334 342 327 256 317 295 264 279 350 349 330 313 301 315 342 335 321 314 314 336 324 307 311 300 232 228 274 209 272 267 232 311 280 272 279 277 259 276 265 270 258 257 264 264
341 324 278 181 301 304 271 273 292 8 351 330 305 293 317 333 333 322 316 326 325 329 317 299 302 297 289 287 269 262 302 309 262 266 267 256 271 270 266 242 256 250 239 236 230
356 271 161 210 305 260 268 282 341 351 324 314 310 310 320 328 317 310 313 310 325 334 337 314 297 305 312 281 263 257 228 303 313 202 258 289 273 220 353 340 304 250 239 173 240
334 304 150 331 269 244 258 338 314 292 309 290 327 306 307 310 307 305 298 299 329 337 327 340 302 291 290 289 288 257 236 192 224 250 246 276 275 305 8 344 336 288 231 257 210
323 302 111 15 328 332 323 336 327 347 329 319 311 319 316 305 303 292 296 296 5 356 356 353 282 303 293 285 357 341 354 224 279 290 254 262 277 339 18 339 330 312 330 360 248
303 317 188 292 286 344 338 314 320 315 292 338 302 288 288 286 295 303 302 309 7 297 267 231 248 255 267 278 276 261 300 295 282 239 252 274 289 330 6 322 303 307 298 325 5
298 34 15 309 338 317 328 310 301 322 341 315 305 299 304 318 313 305 301 303 295 301 211 229 255 257 262 268 268 275 245 271 275 272 275 279 289 9 250 276 273 274 290 331 34
353 351 344 299 307 288 277 311 316 328 335 310 310 333 320 301 292 296 299 300 300 307 260 203 256 267 271 270 264 261 267 232 245 249 273 269 272 251 177 234 267 274 293 314 350
1 340 324 304 300 304 337 328 306 307 310 307 324 310 295 293 305 307 301 287 275 11 220 299 292 259 278 271 280 272 255 253 262 264 268 269 286 297 225 245 256 280 287 296 300
Height
1519 1517 1515 1513 1511 1509 1507 1505 1503 1501 1499 1497 1495 1493 1491 1488 1485 1484 1483 1482 1481 1479 1479 1481 1483 1485 1488 1486 1486 1485 1482 1476 1468 1462 1454 1446 1443 1439 1441 1441 1442 1440 1444 1454 1447
1519 1517 1515 1513 1511 1509 1507 1505 1502 1501 1499 1497 1494 1492 1489 1484 1481 1481 1481 1481 1480 1478 1479 1482 1481 1482 1482 1480 1482 1478 1470 1461 1458 1455 1452 1446 1445 1442 1444 1442 1440 1441 1448 1451 1449
1519 1517 1514 1512 1510 1508 1506 1504 1502 1500 1498 1496 1494 1491 1487 1482 1480 1478 1479 1480 1479 1478 1477 1480 1480 1480 1474 1474 1473 1472 1457 1458 1451 1449 1450 1449 1446 1444 1443 1443 1439 1439 1445 1452 1452
1519 1516 1514 1511 1509 1507 1505 1502 1500 1498 1496 1494 1492 1489 1486 1483 1477 1478 1480 1479 1478 1477 1478 1478 1477 1475 1472 1467 1466 1465 1454 1457 1452 1450 1449 1447 1445 1443 1444 1444 1440 1438 1441 1444 1449
1518 1515 1513 1510 1508 1505 1503 1500 1498 1497 1495 1492 1490 1487 1485 1484 1480 1477 1478 1477 1476 1477 1476 1474 1473 1470 1465 1463 1463 1450 1449 1450 1451 1454 1452 1448 1443 1441 1439 1442 1439 1437 1437 1440 1442
1518 1515 1512 1509 1507 1504 1501 1499 1497 1495 1492 1490 1488 1487 1485 1483 1480 1479 1479 1478 1477 1476 1474 1473 1471 1470 1465 1460 1454 1452 1448 1443 1442 1441 1444 1444 1440 1444 1436 1440 1439 1436 1434 1438 1445
1518 1514 1511 1508 1505 1502 1499 1497 1494 1492 1490 1488 1487 1485 1486 1482 1479 1479 1478 1477 1476 1475 1474 1473 1471 1470 1465 1458 1453 1454 1448 1440 1435 1435 1435 1439 1438 1434 1435 1438 1437 1436 1434 1433 1439
1517 1513 1509 1505 1502 1500 1497 1495 1492 1490 1488 1487 1486 1485 1482 1478 1478 1477 1476 1475 1474 1473 1472 1471 1471 1470 1467 1464 1455 1453 1443 1439 1423 1437 1428 1438 1430 1425 1431 1432 1433 1436 1434 1431 1433
1516 1511 1507 1503 1500 1498 1495 1493 1490 1488 1486 1485 1485 1484 1478 1476 1476 1475 1475 1473 1472 1470 1468 1467 1468 1468 1465 1459 1456 1445 1444 1438 1428 1423 1426 1432 1424 1417 1423 1424 1426 1431 1431 1430 1428
1514 1510 1505 1501 1498 1496 1493 1490 1488 1486 1486 1484 1484 1487 1476 1474 1474 1474 1472 1471 1470 1467 1465 1463 1462 1459 1455 1453 1451 1441 1436 1430 1428 1420 1419 1416 1418 1412 1414 1416 1417 1421 1426 1425 1424
1512 1507 1503 1499 1496 1494 1492 1489 1489 1488 1486 1480 1477 1474 1474 1473 1474 1472 1470 1470 1465 1463 1458 1454 1454 1451 1442 1437 1434 1433 1433 1429 1418 1415 1417 1409 1408 1397 1404 1407 1407 1411 1414 1418 1417
1510 1505 1501 1497 1495 1494 1492 1491 1491 1491 1482 1476 1473 1473 1473 1473 1473 1469 1470 1469 1464 1461 1457 1452 1449 1440 1439 1437 1436 1436 1436 1431 1424 1421 1421 1411 1406 1392 1390 1392 1398 1401 1404 1407 1410
1508 1504 1499 1496 1494 1493 1492 1492 1491 1489 1484 1468 1469 1470 1471 1472 1469 1467 1468 1467 1464 1460 1456 1453 1446 1440 1437 1436 1434 1434 1435 1432 1430 1424 1420 1411 1405 1396 1386 1386 1389 1392 1392 1395 1399
1507 1502 1498 1496 1496 1494 1492 1492 1490 1488 1479 1465 1467 1467 1469 1467 1463 1465 1464 1467 1464 1460 1455 1451 1446 1442 1438 1436 1434 1434 1427 1424 1426 1428 1429 1415 1414 1397 1388 1384 1386 1388 1385 1388 1390
1505 1501 1498 1496 1496 1492 1493 1491 1488 1488 1473 1462 1461 1466 1466 1465 1461 1457 1460 1462 1460 1457 1455 1450 1444 1441 1437 1431 1428 1426 1422 1422 1421 1422 1421 1415 1418 1397 1388 1382 1378 1380 1381 1382 1385
1503 1498 1496 1496 1495 1494 1492 1490 1488 1483 1473 1458 1461 1460 1459 1455 1453 1453 1453 1453 1450 1446 1444 1441 1441 1436 1434 1430 1428 1426 1422 1420 1418 1419 1420 1408 1409 1396 1388 1383 1374 1370 1371 1373 1375
1500 1495 1494 1494 1494 1493 1491 1488 1484 1470 1456 1455 1456 1458 1455 1452 1449 1447 1447 1446 1446 1448 1444 1440 1435 1440 1445 1444 1435 1432 1422 1428 1426 1418 1411 1396 1398 1385 1382 1376 1371 1368 1366 1365 1364
1496 1493 1492 1492 1494 1494 1491 1488 1483 1454 1455 1457 1460 1459 1454 1443 1444 1444 1445 1443 1437 1439 1442 1444 1445 1439 1447 1443 1443 1438 1434 1433 1433 1421 1406 1389 1396 1383 1375 1375 1370 1366 1363 1363 1358
1493 1492 1490 1491 1493 1493 1492 1484 1474 1462 1464 1466 1464 1454 1446 1443 1449 1445 1443 1441 1439 1441 1448 1445 1441 1440 1438 1432 1437 1425 1417 1413 1421 1414 1417 1407 1386 1379 1374 1370 1368 1361 1359 1358 1357
1490 1489 1490 1491 1492 1493 1490 1482 1470 1464 1468 1469 1471 1460 1458 1455 1454 1451 1446 1442 1441 1442 1441 1440 1439 1431 1424 1420 1416 1414 1411 1423 1420 1429 1419 1398 1389 1379 1368 1363 1361 1356 1352 1351 1350
1492 1489 1491 1491 1491 1490 1487 1474 1467 1470 1474 1473 1470 1466 1464 1464 1461 1453 1451 1446 1443 1443 1443 1439 1437 1429 1427 1419 1414 1409 1423 1426 1428 1433 1431 1415 1387 1361 1379 1378 1367 1350 1344 1343 1348
1494 1487 1491 1491 1491 1488 1479 1471 1470 1468 1471 1468 1467 1469 1470 1467 1462 1458 1455 1448 1447 1451 1449 1445 1444 1435 1426 1413 1403 1402 1408 1421 1425 1414 1406 1407 1383 1376 1388 1389 1379 1353 1358 1346 1341
1497 1490 1490 1490 1490 1482 1478 1473 1469 1468 1468 1467 1469 1468 1468 1466 1466 1455 1451 1446 1449 1456 1457 1460 1445 1440 1425 1410 1412 1412 1418 1426 1427 1411 1409 1411 1391 1381 1398 1396 1386 1370 1347 1347 1344
1500 1488 1487 1487 1484 1483 1482 1480 1472 1469 1467 1470 1471 1469 1466 1459 1453 1452 1447 1446 1451 1456 1456 1458 1450 1444 1433 1423 1433 1436 1420 1409 1404 1416 1406 1391 1382 1393 1406 1414 1397 1374 1354 1343 1337
1502 1494 1497 1488 1488 1488 1485 1482 1475 1474 1466 1467 1466 1463 1459 1461 1456 1455 1448 1445 1443 1447 1453 1455 1443 1434 1424 1419 1416 1413 1419 1409 1400 1393 1391 1390 1380 1386 1402 1410 1400 1383 1361 1342 1345
1512 1511 1506 1500 1493 1485 1481 1479 1480 1476 1478 1473 1470 1466 1463 1459 1454 1445 1442 1438 1436 1437 1444 1444 1439 1434 1423 1416 1407 1403 1392 1394 1389 1386 1377 1377 1375 1373 1381 1385 1372 1360 1349 1349 1345
1517 1516 1514 1502 1490 1481 1481 1482 1482 1481 1477 1473 1472 1469 1461 1455 1448 1442 1438 1432 1427 1439 1440 1445 1438 1431 1410 1401 1394 1396 1377 1372 1363 1363 1368 1373 1367 1363 1368 1364 1362 1358 1357 1354 1351